Location: Abundant Grace Fellowship
(35.0349°N, 90.0924°W)
Time: 22:08:12
(UTC+00:00)

Cosmos 1500 Rocket - Pass Details

Date: 18 January 2026
Orbit: 597 x 623 km, 82.5° (Epoch: 13 February)

Event Time Altitude Azimuth Distance (km) Brightness Sun altitude
Rises 11:42:13 0° 210° (SSW) 2,847 6.8 -17.2°
Reaches altitude 10° 11:44:38 10° 221° (SW) 1,953 5.9 -16.8°
Maximum altitude 11:48:25 29° 282° (WNW) 1,122 4.3 -16.0°
Drops below altitude 10° 11:52:15 10° 343° (NNW) 1,979 5.8 -15.2°
Sets 11:54:44 0° 355° (N) 2,893 6.8 -14.7°
